[[{"header":{"parameterUnit":"m.s-1","parameterCategory":1,"la1":30.2991,"la2":30.254,"lo1":-89.0895,"lo2":-89.0444,"dy":0.0017,"dx":0.0017,"nx":28,"ny":28,"refTime":"2023-04-26T15:00:00:Z","depth":0,"parameterNumber":2,"parameterNumberName":"U-component_of_WINDS"},"data":[0,0,0,0,0,0,0,0,0,0,0,0,0,0,0,0,0,0,0,0,0,0,0,0,0,0,0,0,0,0,0,0,0,0,0,0,0,0,0,0,0,0,0,0,0,0,0,0,0,0,0,0,0,0,0,0,0,0,-1.227,-1.2272,0,-1.2512,-1.2515,-1.2518,-1.2643,-1.2643,-1.2644,-1.2644,-1.2892,-1.2898,-1.2905,0,0,0,0,0,0,0,0,0,0,0,0,0,-1.1916,-1.1922,-1.2269,-1.2273,-1.2276,-1.2512,-1.2515,-1.2518,-1.2643,-1.2643,-1.2644,-1.2644,-1.289,-1.2898,-1.2905,0,0,0,0,0,0,0,0,0,0,0,0,0,-1.2105,-1.1924,-1.2269,-1.2366,-1.2378,-1.2511,-1.2515,-1.2519,-1.2643,-1.2643,-1.2644,-1.2644,-1.2887,-1.2897,-1.2906,-1.2961,0,0,-1.2936,-1.294,0,0,0,0,0,0,0,0,-1.2094,-1.2118,-1.2349,-1.236,-1.2373,-1.2548,-1.2482,-1.2667,-1.2643,-1.2542,-1.2644,-1.2644,-1.2777,-1.2796,-1.2841,-1.2973,-1.2984,-1.2937,-1.2943,-1.2947,-1.295,0,0,0,0,0,0,0,-1.2081,-1.2108,-1.2366,-1.2352,-1.2367,-1.2398,-1.2426,-1.2517,-1.2655,-1.2551,-1.2561,-1.2588,-1.2784,-1.2831,-1.2848,-1.2987,-1.2937,-1.2945,-1.2951,-1.2955,-1.3178,-1.3178,0,0,0,0,0,0,-1.2052,-1.2096,-1.2358,-1.2373,-1.2231,-1.2405,-1.2435,-1.2491,-1.2655,-1.268,-1.2587,-1.2593,-1.2815,-1.2836,-1.2857,-1.2933,-1.2947,-1.2956,-1.2961,-1.3178,-1.3178,-1.3178,0,0,0,0,0,0,-1.2044,-1.2074,-1.2348,-1.2237,-1.2275,-1.241,-1.2473,-1.2496,-1.2544,-1.2682,-1.2708,-1.261,-1.2816,-1.2843,-1.2935,-1.2944,-1.296,-1.2969,-1.3178,-1.3178,-1.3178,-1.3085,0,0,0,0,0,0,-1.2033,-1.2071,-1.2092,-1.2237,-1.228,-1.2421,-1.2473,-1.25,-1.256,-1.2569,-1.2711,-1.2734,-1.2818,-1.292,-1.2944,-1.2957,-1.2977,-1.3178,-1.3178,-1.3178,-1.3088,-1.3082,-1.3077,0,0,0,0,0,-1.202,-1.2056,-1.2093,-1.2124,-1.231,-1.2421,-1.2446,-1.2542,-1.256,-1.2584,-1.2673,-1.273,-1.2938,-1.2928,-1.2957,-1.2973,-1.3178,-1.3178,-1.3178,-1.309,-1.3083,-1.3077,0,0,0,0,0,0,-1.1909,-1.2077,-1.2119,-1.2203,-1.2297,-1.2442,-1.2475,-1.2531,-1.2621,-1.2626,-1.2741,-1.2772,-1.2853,-1.2922,-1.2908,-1.3035,-1.3064,-1.307,-1.2987,-1.2981,-1.2976,-1.2958,-1.2985,0,0,0,0,0,-1.1894,-1.197,-1.2113,-1.2173,-1.2218,-1.2338,-1.239,-1.2456,-1.2557,-1.2598,-1.2694,-1.2791,-1.2879,-1.2934,-1.3022,-1.3098,-1.3132,-1.3124,-1.3118,-1.3113,-1.3117,-1.3164,-1.3162,-1.3179,-1.3179,-1.3179,0,0,-1.1864,-1.1966,-1.2006,-1.2153,-1.2234,-1.231,-1.2371,-1.2449,-1.2507,-1.261,-1.2702,-1.2776,-1.2892,-1.2976,-1.3018,-1.3036,-1.3119,-1.3113,-1.3108,-1.3115,-1.3164,-1.3162,-1.316,-1.3179,-1.3179,-1.3179,0,0,-1.185,-1.1933,-1.1993,-1.2073,-1.2194,-1.2274,-1.2288,-1.2425,-1.2478,-1.2573,-1.2652,-1.2723,-1.2871,-1.2951,-1.3011,-1.3027,-1.3083,-1.3052,-1.3023,-1.3068,-1.3066,-1.3066,-1.3072,-1.3073,-1.3056,-1.3055,-1.3055,0,-1.1797,-1.1916,-1.2017,-1.2091,-1.2154,-1.225,-1.2312,-1.2385,-1.2528,-1.2569,-1.2588,-1.2777,-1.2861,-1.2966,-1.297,-1.3015,-1.3036,-1.3037,-1.3058,-1.3059,-1.306,-1.3067,-1.3069,-1.3051,-1.3052,-1.3052,-1.3052,0,-1.1846,-1.1927,-1.1961,-1.2097,-1.2164,-1.2231,-1.2343,-1.2398,-1.2458,-1.2536,-1.2631,-1.2737,-1.2848,-1.2878,-1.2937,-1.2992,-1.3,-1.3036,-1.3068,-1.3052,-1.3061,-1.3065,-1.3045,-1.3046,-1.3048,-1.3049,0,0,-1.1767,-1.196,-1.197,-1.2034,-1.2175,-1.224,-1.2312,-1.2422,-1.2467,-1.2563,-1.2627,-1.2751,-1.2786,-1.2854,-1.2923,-1.2961,-1.2969,-1.2995,-1.2999,-1.2987,-1.3037,-1.3008,-1.301,-1.3007,-1.3008,-1.3008,-1.3027,0,-1.1773,-1.1907,-1.2,-1.2098,-1.2175,-1.2268,-1.2332,-1.2425,-1.25,-1.2576,-1.2659,-1.2745,-1.2785,-1.2827,-1.2869,-1.2959,-1.298,-1.2959,-1.3068,-1.3071,-1.3037,-1.3015,-1.2985,-1.2998,-1.3032,-1.3032,-1.3033,0,-1.1797,-1.1891,-1.1996,-1.213,-1.2166,-1.222,-1.2329,-1.24,-1.2509,-1.2561,-1.2637,-1.2708,-1.2789,-1.2812,-1.2926,-1.2909,-1.2959,-1.301,-1.3013,-1.3027,-1.3051,-1.3029,-1.3004,-1.3006,-1.3039,-1.3039,-1.3038,0,-1.173,-1.1882,-1.1965,-1.2017,-1.2175,-1.2212,-1.2279,-1.2388,-1.2448,-1.2543,-1.2583,-1.2686,-1.2742,-1.2821,-1.2918,-1.2926,-1.3022,-1.3053,-1.3068,-1.3065,-1.3084,-1.3082,-1.3067,-1.3115,-1.3115,-1.3115,-1.3115,0,-1.1727,-1.1788,-1.1938,-1.1988,-1.206,-1.2167,-1.2235,-1.2311,-1.2407,-1.2475,-1.2562,-1.2624,-1.2748,-1.2825,-1.2901,-1.2985,-1.3009,-1.3054,-1.3074,-1.3047,-1.3041,-1.3082,-1.3083,-1.3116,-1.3116,-1.3115,-1.3115,0,-1.1664,-1.1767,-1.1864,-1.2006,-1.2043,-1.2089,-1.2211,-1.2265,-1.2344,-1.2429,-1.2455,-1.2581,-1.2676,-1.2781,-1.2911,-1.2963,-1.3042,-1.307,-1.3005,-1.3016,-1.3025,-1.3023,-1.3037,-1.3045,-1.3085,-1.3085,-1.3085,0,-1.1656,-1.1705,-1.1852,-1.1904,-1.1969,-1.2051,-1.2113,-1.2221,-1.2282,-1.241,-1.2448,-1.255,-1.2638,-1.2786,-1.2889,-1.299,-1.3021,-1.3019,-1.3037,-1.3009,-1.3022,-1.3018,-1.3024,-1.3014,-1.3013,-1.3012,-1.3011,0,-1.163,-1.1678,-1.1764,-1.1868,-1.1939,-1.2026,-1.2117,-1.2154,-1.228,-1.2345,-1.2444,-1.2511,-1.2645,-1.2746,-1.2859,-1.293,-1.2992,-1.3005,-1.3014,-1.2987,-1.2948,-1.297,-1.2991,-1.3004,-1.3005,-1.3005,-1.3006,-1.3006,-1.1595,-1.1643,-1.1755,-1.1848,-1.1927,-1.201,-1.2067,-1.2155,-1.2239,-1.2356,-1.2415,-1.2513,-1.2622,-1.2781,-1.285,-1.2929,-1.2948,-1.2961,-1.2964,-1.2966,-1.2959,-1.2934,-1.295,-1.295,-1.295,-1.2951,-1.2951,0,-1.1574,-1.165,-1.1735,-1.1859,-1.1932,-1.1984,-1.2087,-1.2146,-1.2231,-1.2327,-1.2412,-1.2526,-1.2624,-1.2735,-1.284,-1.2882,-1.2914,-1.2907,-1.2905,-1.292,-1.2935,-1.2917,-1.288,-1.288,-1.288,-1.288,-1.288,-1.288,-1.1572,-1.1657,-1.1718,-1.1844,-1.1921,-1.2018,-1.2073,-1.215,-1.2227,-1.2351,-1.2433,-1.2504,-1.2607,-1.2721,-1.2814,-1.2844,-1.2879,-1.2863,-1.2902,-1.2913,-1.2919,-1.2925,-1.2909,-1.287,-1.287,-1.2881,-1.2881,-1.2881]},{"header":{"parameterUnit":"m.s-1","parameterCategory":1,"la1":30.2991,"la2":30.254,"lo1":-89.0895,"lo2":-89.0444,"dy":0.0017,"dx":0.0017,"nx":28,"ny":28,"refTime":"2023-04-26T15:00:00:Z","depth":0,"parameterNumber":3,"parameterNumberName":"V-component_of_WINDS"},"data":[0,0,0,0,0,0,0,0,0,0,0,0,0,0,0,0,0,0,0,0,0,0,0,0,0,0,0,0,0,0,0,0,0,0,0,0,0,0,0,0,0,0,0,0,0,0,0,0,0,0,0,0,0,0,0,0,0,0,8.1204,8.1205,0,8.1287,8.1288,8.1289,8.1238,8.1236,8.1233,8.1231,8.1309,8.1313,8.1317,0,0,0,0,0,0,0,0,0,0,0,0,0,8.0994,8.0998,8.1204,8.1205,8.1206,8.1287,8.1288,8.1289,8.1239,8.1236,8.1233,8.123,8.1307,8.1312,8.1317,0,0,0,0,0,0,0,0,0,0,0,0,0,8.1082,8.0999,8.1204,8.1191,8.119,8.1287,8.1288,8.129,8.1239,8.1236,8.1232,8.1229,8.1305,8.1312,8.1318,8.143,0,0,8.1338,8.1341,0,0,0,0,0,0,0,0,8.1077,8.109,8.1192,8.1192,8.1192,8.1249,8.1243,8.1336,8.124,8.122,8.1231,8.1227,8.1291,8.1299,8.1322,8.1434,8.1437,8.1338,8.1342,8.1345,8.1347,0,0,0,0,0,0,0,8.1071,8.1086,8.1237,8.1193,8.1193,8.1178,8.1187,8.126,8.1275,8.1222,8.1218,8.1229,8.129,8.1316,8.1323,8.1438,8.1338,8.1344,8.1348,8.135,8.1647,8.1651,0,0,0,0,0,0,8.1067,8.1081,8.1234,8.1239,8.1124,8.1185,8.1195,8.1234,8.1274,8.1277,8.1232,8.1227,8.1306,8.1316,8.1326,8.146,8.1345,8.1351,8.1355,8.1643,8.1648,8.1652,0,0,0,0,0,0,8.1062,8.1081,8.1231,8.1159,8.1177,8.1193,8.1237,8.1237,8.1263,8.1282,8.1283,8.1256,8.1304,8.1317,8.1405,8.1462,8.1354,8.136,8.1638,8.1644,8.165,8.173,0,0,0,0,0,0,8.1057,8.108,8.1124,8.1161,8.1181,8.1311,8.1241,8.1242,8.1275,8.1268,8.1305,8.1307,8.1302,8.1396,8.1412,8.1469,8.1365,8.1633,8.1641,8.1648,8.1723,8.1738,8.1752,0,0,0,0,0,8.1049,8.1141,8.1126,8.1145,8.1237,8.1314,8.1326,8.1321,8.128,8.1324,8.1336,8.1306,8.1454,8.1405,8.1423,8.1483,8.1629,8.1639,8.1647,8.1716,8.1735,8.1751,0,0,0,0,0,0,8.1107,8.1146,8.113,8.1237,8.1273,8.1306,8.1361,8.1341,8.1388,8.1379,8.1368,8.1377,8.147,8.1485,8.1431,8.1594,8.1535,8.1548,8.1581,8.1599,8.1614,8.1608,8.137,0,0,0,0,0,8.1133,8.1195,8.1224,8.1315,8.1335,8.1345,8.1378,8.1372,8.1408,8.1422,8.1441,8.1475,8.1529,8.1565,8.1616,8.1724,8.1731,8.1774,8.1789,8.1801,8.1812,8.1872,8.1891,8.1682,8.1682,8.1681,0,0,8.1185,8.1214,8.1253,8.1328,8.1355,8.1418,8.1358,8.1426,8.1472,8.1431,8.1518,8.1533,8.157,8.167,8.1714,8.1685,8.1872,8.1812,8.1822,8.1827,8.1883,8.1903,8.1921,8.1688,8.1687,8.1686,0,0,8.1314,8.1342,8.1422,8.1452,8.1496,8.1502,8.1521,8.1558,8.1567,8.1654,8.1625,8.1678,8.1772,8.18,8.1827,8.1968,8.1942,8.1985,8.2061,8.2119,8.2136,8.215,8.2201,8.222,8.1996,8.1996,8.1996,0,8.1373,8.1469,8.1465,8.1537,8.157,8.154,8.162,8.1648,8.1705,8.1727,8.1694,8.1813,8.1835,8.1942,8.1977,8.1999,8.202,8.1981,8.2134,8.2149,8.2162,8.2211,8.223,8.2001,8.2,8.2,8.1999,0,8.154,8.1607,8.1666,8.1726,8.1766,8.1841,8.1847,8.1887,8.1877,8.1887,8.1975,8.2002,8.2059,8.2083,8.2073,8.2189,8.217,8.2136,8.2076,8.2187,8.2233,8.2251,8.2008,8.2006,8.2005,8.2004,0,0,8.1706,8.1765,8.1787,8.1814,8.1861,8.1911,8.1985,8.2043,8.2079,8.2119,8.218,8.2261,8.2231,8.2261,8.2253,8.2304,8.2416,8.2264,8.2265,8.2292,8.2546,8.2572,8.2594,8.2399,8.2403,8.2406,8.2544,0,8.1838,8.1971,8.197,8.2091,8.2153,8.2126,8.219,8.2225,8.2236,8.2288,8.2298,8.2357,8.2312,8.233,8.238,8.2392,8.2467,8.2382,8.2455,8.2458,8.2448,8.2618,8.2645,8.2774,8.2561,8.2564,8.2566,0,8.201,8.206,8.2189,8.2229,8.2255,8.2313,8.2367,8.2418,8.2456,8.246,8.2496,8.2481,8.2554,8.2493,8.2593,8.2536,8.2565,8.2576,8.2581,8.2588,8.2519,8.263,8.2815,8.2834,8.2594,8.2592,8.259,0,8.2119,8.2219,8.2309,8.2333,8.2381,8.2423,8.2445,8.248,8.2516,8.2562,8.2585,8.2638,8.2667,8.2708,8.2707,8.2662,8.2809,8.2747,8.2814,8.2814,8.2846,8.2844,8.3039,8.2865,8.2864,8.2864,8.2863,0,8.2267,8.2347,8.236,8.2415,8.2504,8.2501,8.2588,8.2605,8.2638,8.2695,8.2672,8.2726,8.2722,8.2775,8.2775,8.2859,8.2871,8.2876,8.2875,8.2879,8.2878,8.2898,8.2889,8.2869,8.2868,8.2867,8.2866,0,8.2405,8.2416,8.2513,8.2552,8.2564,8.2628,8.266,8.2712,8.2722,8.2794,8.2811,8.2825,8.2888,8.2891,8.2962,8.2961,8.3064,8.3052,8.3052,8.305,8.3117,8.3111,8.3332,8.3361,8.3167,8.3169,8.317,0,8.2499,8.256,8.2607,8.2646,8.2671,8.2732,8.277,8.2769,8.2809,8.2858,8.2904,8.2965,8.3014,8.3115,8.313,8.3184,8.3174,8.3248,8.3182,8.3184,8.3176,8.3173,8.3179,8.3261,8.3263,8.3265,8.3266,0,8.2665,8.2668,8.2725,8.2784,8.283,8.2876,8.2918,8.295,8.2954,8.2999,8.3065,8.3103,8.3177,8.3238,8.3291,8.331,8.3289,8.3287,8.3305,8.331,8.3308,8.3311,8.3088,8.3282,8.328,8.3279,8.3278,8.3277,8.2784,8.2838,8.2881,8.2944,8.2977,8.3018,8.307,8.3088,8.3143,8.3206,8.3201,8.3274,8.331,8.3381,8.3405,8.346,8.3434,8.3461,8.3468,8.3474,8.3482,8.3299,8.3469,8.3469,8.3468,8.3468,8.3468,0,8.295,8.2976,8.3035,8.3098,8.3148,8.3127,8.3173,8.3215,8.3281,8.3318,8.3368,8.3443,8.3502,8.3523,8.3581,8.3621,8.3613,8.3636,8.3633,8.3638,8.3501,8.348,8.3642,8.3642,8.3642,8.3642,8.3642,8.3642,8.3042,8.3133,8.3142,8.3249,8.3274,8.3348,8.3376,8.3413,8.3444,8.353,8.3581,8.3595,8.3626,8.3686,8.3738,8.3743,8.3765,8.3793,8.3793,8.3665,8.3647,8.3631,8.3611,8.3798,8.3798,8.3926,8.3927,8.3928]}]]